| time (UTC) | temp F | wind direction | speed MPH | gust MPH | rain 1hr in | rain 24hr in | rain mn in | humidity % | barometer mb |
| 20260503215040 | 68 | 0.0 | 0.0 | 0.00 | 0.00 | 0.00 | 34 | 1019.2 | |
| 20260503214118 | 67 | 0.0 | 0.0 | 0.00 | 0.00 | 0.00 | 35 | 1019.2 | |
| 20260503213019 | 68 | 0.0 | 0.0 | 0.00 | 0.00 | 0.00 | 35 | 1019.3 | |
| 20260503212030 | 67 | 0.0 | 0.0 | 0.00 | 0.00 | 0.00 | 35 | 1019.3 | |
| 20260503211019 | 67 | 0.0 | 0.0 | 0.00 | 0.00 | 0.00 | 34 | 1019.6 | |
| 20260503210019 | 67 | 0.0 | 0.0 | 0.00 | 0.00 | 0.00 | 35 | 1019.5 | |
| 20260503205029 | 67 | 0.0 | 0.0 | 0.00 | 0.00 | 0.00 | 34 | 1019.6 | |
| 20260503204039 | 66 | 0.0 | 0.0 | 0.00 | 0.00 | 0.00 | 33 | 1019.8 | |
| 20260503203034 | 67 | 0.0 | 0.0 | 0.00 | 0.00 | 0.00 | 33 | 1020.1 | |
| 20260503202119 | 67 | 0.0 | 0.0 | 0.00 | 0.00 | 0.00 | 34 | 1020.3 | |
| 20260503201019 | 66 | 314 | 1.0 | 1.0 | 0.00 | 0.00 | 0.00 | 34 | 1020.3 |
| 20260503200033 | 65 | 353 | 1.0 | 3.0 | 0.00 | 0.00 | 0.00 | 34 | 1020.5 |
| 20260503195038 | 64 | 345 | 2.0 | 2.0 | 0.00 | 0.00 | 0.00 | 34 | 1020.9 |
| 20260503194100 | 65 | 0.0 | 0.0 | 0.00 | 0.00 | 0.00 | 35 | 1021.0 | |
| 20260503193052 | 64 | 0.0 | 0.0 | 0.00 | 0.00 | 0.00 | 34 | 1021.0 | |
| 20260503192018 | 63 | 0.0 | 0.0 | 0.00 | 0.00 | 0.00 | 35 | 1021.2 | |
| 20260503191020 | 64 | 0.0 | 0.0 | 0.00 | 0.00 | 0.00 | 37 | 1021.5 | |
| 20260503190019 | 63 | 0.0 | 0.0 | 0.00 | 0.00 | 0.00 | 37 | 1021.5 | |
| 20260503185019 | 62 | 0.0 | 0.0 | 0.00 | 0.00 | 0.00 | 36 | 1021.6 | |
| 20260503184018 | 62 | 0.0 | 0.0 | 0.00 | 0.00 | 0.00 | 37 | 1021.8 | |
| 20260503183018 | 61 | 0.0 | 0.0 | 0.00 | 0.00 | 0.00 | 39 | 1021.7 | |
| 20260503182023 | 61 | 0.0 | 0.0 | 0.00 | 0.00 | 0.00 | 40 | 1021.8 | |
| 20260503181119 | 60 | 0.0 | 0.0 | 0.00 | 0.00 | 0.00 | 39 | 1022.0 | |
| 20260503180019 | 61 | 0.0 | 0.0 | 0.00 | 0.00 | 0.00 | 41 | 1022.1 | |
| 20260503175022 | 60 | 0.0 | 0.0 | 0.00 | 0.00 | 0.00 | 41 | 1022.3 | |
| 20260503174019 | 59 | 0.0 | 0.0 | 0.00 | 0.00 | 0.00 | 40 | 1022.5 | |
| 20260503173041 | 59 | 0.0 | 0.0 | 0.00 | 0.00 | 0.00 | 39 | 1022.6 | |
| 20260503172021 | 60 | 0.0 | 0.0 | 0.00 | 0.00 | 0.00 | 41 | 1022.8 | |
| 20260503171019 | 59 | 0.0 | 3.0 | 0.00 | 0.00 | 0.00 | 41 | 1022.8 | |
| 20260503150110 | 53 | 0.0 | 0.0 | 0.00 | 0.00 | 0.00 | 46 | 1024.0 | |
| 20260503131038 | 45 | 0.0 | 0.0 | 0.00 | 0.00 | 0.00 | 69 | 1023.6 | |
| 20260503090111 | 39 | 0.0 | 0.0 | 0.00 | 0.00 | 0.00 | 72 | 1021.7 | |
| 20260503081120 | 40 | 0.0 | 0.0 | 0.00 | 0.00 | 0.00 | 71 | 1021.3 | |
| 20260503080117 | 40 | 0.0 | 0.0 | 0.00 | 0.00 | 0.00 | 68 | 1021.1 | |
| 20260503072118 | 44 | 0.0 | 0.0 | 0.00 | 0.00 | 0.00 | 65 | 1020.9 | |
| 20260503071056 | 45 | 0.0 | 0.0 | 0.00 | 0.00 | 0.00 | 64 | 1020.7 | |
| 20260503060121 | 46 | 0.0 | 0.0 | 0.00 | 0.00 | 0.00 | 68 | 1020.5 | |
| 20260503055042 | 47 | 0.0 | 0.0 | 0.00 | 0.00 | 0.00 | 64 | 1020.6 | |
| 20260503054020 | 48 | 0.0 | 0.0 | 0.00 | 0.00 | 0.00 | 63 | 1020.4 | |
| 20260503053103 | 49 | 0.0 | 0.0 | 0.00 | 0.00 | 0.00 | 62 | 1020.6 | |
| 20260503052025 | 49 | 0.0 | 0.0 | 0.00 | 0.00 | 0.00 | 58 | 1020.6 | |
| 20260503051019 | 50 | 0.0 | 0.0 | 0.00 | 0.00 | 0.00 | 57 | 1020.6 | |
| 20260503050045 | 49 | 0.0 | 0.0 | 0.00 | 0.00 | 0.00 | 57 | 1020.6 | |
| 20260503045023 | 49 | 0.0 | 0.0 | 0.00 | 0.00 | 0.00 | 56 | 1020.4 | |
| 20260503044123 | 49 | 0.0 | 0.0 | 0.00 | 0.00 | 0.00 | 55 | 1020.5 | |
| 20260503043028 | 49 | 0.0 | 0.0 | 0.00 | 0.00 | 0.00 | 56 | 1020.5 | |
| 20260503042022 | 49 | 0.0 | 0.0 | 0.00 | 0.00 | 0.00 | 54 | 1020.3 | |
| 20260503041106 | 50 | 0.0 | 0.0 | 0.00 | 0.00 | 0.00 | 52 | 1020.1 | |
| 20260503040047 | 51 | 0.0 | 0.0 | 0.00 | 0.00 | 0.00 | 52 | 1020.0 | |
| 20260503035120 | 51 | 0.0 | 0.0 | 0.00 | 0.00 | 0.00 | 52 | 1020.1 | |
| 20260503034111 | 52 | 0.0 | 0.0 | 0.00 | 0.00 | 0.00 | 52 | 1020.2 | |
| 20260503033025 | 52 | 0.0 | 0.0 | 0.00 | 0.00 | 0.00 | 51 | 1020.0 | |
| 20260503032129 | 53 | 0.0 | 0.0 | 0.00 | 0.00 | 0.00 | 52 | 1020.0 | |
| 20260503031030 | 53 | 0.0 | 0.0 | 0.00 | 0.00 | 0.00 | 52 | 1020.0 | |
| 20260503030025 | 52 | 0.0 | 0.0 | 0.00 | 0.00 | 0.00 | 53 | 1019.8 | |
| 20260503025051 | 53 | 0.0 | 0.0 | 0.00 | 0.00 | 0.00 | 52 | 1020.0 | |
| 20260503024029 | 53 | 0.0 | 0.0 | 0.00 | 0.00 | 0.00 | 53 | 1019.7 | |
| 20260503023129 | 52 | 0.0 | 0.0 | 0.00 | 0.00 | 0.00 | 53 | 1019.7 | |
| 20260503022034 | 52 | 0.0 | 0.0 | 0.00 | 0.00 | 0.00 | 50 | 1019.7 | |
| 20260503021027 | 53 | 0.0 | 0.0 | 0.00 | 0.00 | 0.00 | 50 | 1019.6 | |
| 20260503020115 | 53 | 0.0 | 0.0 | 0.00 | 0.00 | 0.00 | 50 | 1019.3 | |
| 20260503015052 | 52 | 0.0 | 0.0 | 0.00 | 0.00 | 0.00 | 49 | 1019.2 | |
| 20260503014121 | 52 | 0.0 | 0.0 | 0.00 | 0.00 | 0.00 | 46 | 1019.1 | |
| 20260503013054 | 52 | 0.0 | 0.0 | 0.00 | 0.00 | 0.00 | 46 | 1018.9 | |
| 20260503012032 | 53 | 0.0 | 0.0 | 0.00 | 0.00 | 0.00 | 44 | 1018.7 | |
| 20260503011114 | 54 | 0.0 | 0.0 | 0.00 | 0.00 | 0.00 | 43 | 1018.8 | |
| 20260503010040 | 55 | 0.0 | 0.0 | 0.00 | 0.00 | 0.00 | 43 | 1018.6 | |
| 20260503005138 | 55 | 0.0 | 0.0 | 0.00 | 0.00 | 0.00 | 43 | 1018.3 | |
| 20260503004057 | 56 | 0.0 | 0.0 | 0.00 | 0.00 | 0.00 | 42 | 1018.2 | |
| 20260503003034 | 56 | 0.0 | 0.0 | 0.00 | 0.00 | 0.00 | 42 | 1018.0 | |
| 20260503002118 | 56 | 0.0 | 0.0 | 0.00 | 0.00 | 0.00 | 41 | 1017.9 | |
| 20260503001056 | 57 | 0.0 | 0.0 | 0.00 | 0.00 | 0.00 | 41 | 1017.7 | |
| 20260503000036 | 58 | 0.0 | 0.0 | 0.00 | 0.00 | 0.00 | 40 | 1017.6 | |
| 20260502235100 | 58 | 0.0 | 0.0 | 0.00 | 0.00 | 0.00 | 40 | 1017.4 | |
| 20260502234022 | 59 | 0.0 | 0.0 | 0.00 | 0.00 | 0.00 | 40 | 1017.4 | |
| 20260502233122 | 58 | 137 | 2.0 | 5.0 | 0.00 | 0.00 | 0.00 | 40 | 1017.2 |
| 20260502232043 | 59 | 195 | 1.0 | 2.0 | 0.00 | 0.00 | 0.00 | 39 | 1017.3 |
| 20260502231020 | 59 | 0.0 | 0.0 | 0.00 | 0.00 | 0.00 | 39 | 1017.3 | |
| 20260502230122 | 60 | 0.0 | 0.0 | 0.00 | 0.00 | 0.00 | 40 | 1017.5 | |
| 20260502225025 | 60 | 173 | 2.0 | 3.0 | 0.00 | 0.00 | 0.00 | 38 | 1017.5 |
| 20260502224021 | 61 | 0.0 | 1.0 | 0.00 | 0.00 | 0.00 | 38 | 1017.6 | |
| 20260502223106 | 60 | 1.0 | 2.0 | 0.00 | 0.00 | 0.00 | 37 | 1017.4 | |
| 20260502222024 | 61 | 188 | 3.0 | 6.0 | 0.00 | 0.00 | 0.00 | 36 | 1017.4 |
| 20260502221124 | 61 | 215 | 3.0 | 5.0 | 0.00 | 0.00 | 0.00 | 36 | 1017.1 |
| 20260502220029 | 62 | 189 | 5.0 | 7.0 | 0.00 | 0.00 | 0.00 | 35 | 1017.0 |